Weather History for KCMX - December, 2012

Change the Weather History Date:

Tuesday, December 11, 2012

  Actual Average Record
Temperature  
Mean Temperature 20 °F -  
Max Temperature 24 °F - - ()
Min Temperature 17 °F - - ()
Degree Days  
Heating Degree Days 44    
Moisture  
Dew Point 15 °F    
Average Humidity 83    
Maximum Humidity 96    
Minimum Humidity 62    
Precipitation  
Precipitation 0.01 in - - ()
Sea Level Pressure  
Sea Level Pressure 29.81 in    
Wind  
Wind Speed 8 mph (SW)    
Max Wind Speed 15 mph    
Max Gust Speed 21 mph    
Visibility 5 miles    
Events Fog , Snow    
T = Trace of Precipitation, MM = Missing Value Source: NWS Daily Summary

Daily Weather History Graph

Daily Weather History Graph

Search for Another Location

Airport or City:

Trip Planner

Search our weather history database for the weather conditions in past years. The results will help you decide how hot, cold, wet, or windy it might be!

Date:

Astronomy

Dec. 11, 2012 Rise Set
Actual Time 8:30 AM EST 5:04 PM EST
Civil Twilight 7:55 AM EST 5:39 PM EST
Nautical Twilight 7:16 AM EST 6:18 PM EST
Astronomical Twilight 6:39 AM EST 6:55 PM EST
Moon 6:21 AM EST (12/11) 3:45 PM EST (12/11)
Length of Visible Light 9h 44m
Length of Day
8h 33m
Waning Crescent, 4% of the Moon is Illuminated
Dec 11
Waning Crescent
Dec 13
New
Dec 20
First Quarter
Dec 28
Full
Jan 4
Last Quarter

Hourly Weather History & Observations

Time (EST) Temp. Windchill Dew Point Humidity Pressure Visibility Wind Dir Wind Speed Gust Speed Precip Events Conditions
12:00 AM 21.2 °F 14.9 °F 19.4 °F 93% 29.80 in 1.8 mi South 4.6 mph - 0.00 in Snow Light Snow
12:07 AM 21.2 °F 14.9 °F 19.4 °F 93% 29.80 in 2.5 mi SSE 4.6 mph - 0.00 in Snow Light Snow
12:26 AM 21.2 °F 16.4 °F 19.4 °F 93% 29.80 in 4.0 mi SSE 3.5 mph - 0.00 in Snow Light Snow
12:53 AM 21.0 °F 14.6 °F 19.9 °F 96% 29.85 in 10.0 mi South 4.6 mph - 0.00 in   Overcast
1:53 AM 21.9 °F 13.4 °F 19.0 °F 89% 29.84 in 10.0 mi SSW 6.9 mph - N/A   Overcast
2:53 AM 21.9 °F 13.4 °F 19.0 °F 89% 29.83 in 10.0 mi South 6.9 mph - N/A   Overcast
3:53 AM 21.9 °F 15.7 °F 19.0 °F 89% 29.83 in 10.0 mi SSW 4.6 mph - N/A   Overcast
4:42 AM 21.2 °F 14.9 °F 19.4 °F 93% 29.76 in 10.0 mi SSW 4.6 mph - N/A   Overcast
4:53 AM 21.9 °F 14.5 °F 19.0 °F 89% 29.81 in 10.0 mi SSW 5.8 mph - N/A   Overcast
5:53 AM 21.9 °F 15.7 °F 19.0 °F 89% 29.81 in 4.0 mi SSW 4.6 mph - 0.00 in Snow Light Snow
6:53 AM 19.9 °F - 19.0 °F 96% 29.81 in 9.0 mi Calm Calm - 0.00 in   Overcast
7:53 AM 19.0 °F - 17.1 °F 92% 29.80 in 10.0 mi Calm Calm - N/A   Partly Cloudy
8:53 AM 19.0 °F 12.3 °F 17.1 °F 92% 29.79 in 10.0 mi SW 4.6 mph - N/A   Clear
9:53 AM 19.9 °F 13.4 °F 17.1 °F 89% 29.79 in 10.0 mi SW 4.6 mph - N/A   Mostly Cloudy
10:53 AM 21.0 °F 10.6 °F 16.0 °F 81% 29.78 in 10.0 mi SSW 9.2 mph - N/A   Overcast
11:53 AM 21.9 °F 11.7 °F 14.0 °F 72% 29.76 in 10.0 mi SSW 9.2 mph - N/A   Overcast
12:53 PM 24.1 °F 12.5 °F 12.9 °F 62% 29.74 in 10.0 mi SSW 12.7 mph - N/A   Overcast
1:42 PM 23.0 °F 11.1 °F 14.0 °F 68% 29.69 in 10.0 mi SW 12.7 mph - N/A   Overcast
1:53 PM 23.0 °F 10.6 °F 12.2 °F 63% 29.69 in 10.0 mi WSW 13.8 mph 19.6 mph N/A   Overcast
2:53 PM 21.0 °F 9.3 °F 14.0 °F 74% 29.75 in 5.0 mi West 11.5 mph - 0.00 in Snow Light Snow
3:26 PM 21.2 °F 10.1 °F 14.0 °F 74% 29.70 in 5.0 mi WSW 10.4 mph - 0.00 in Snow Light Snow
3:53 PM 21.0 °F 8.6 °F 14.0 °F 74% 29.77 in 7.0 mi WSW 12.7 mph - 0.00 in Snow Light Snow
4:53 PM 19.9 °F 7.3 °F 12.9 °F 74% 29.79 in 2.0 mi West 12.7 mph - 0.00 in Snow Light Snow
5:05 PM 19.4 °F 6.0 °F 12.2 °F 74% 29.73 in 4.0 mi SW 13.8 mph - 0.00 in Snow Light Snow
5:53 PM 19.0 °F 6.8 °F 12.0 °F 74% 29.81 in 7.0 mi WSW 11.5 mph 19.6 mph 0.00 in Snow Light Snow
6:11 PM 19.4 °F 8.6 °F 12.2 °F 74% 29.76 in 7.0 mi WSW 9.2 mph - 0.00 in Snow Light Snow
6:50 PM 17.6 °F 3.2 °F 12.2 °F 79% 29.77 in 2.5 mi WSW 15.0 mph - 0.00 in Snow Light Snow
6:53 PM 18.0 °F 6.9 °F 12.0 °F 78% 29.83 in 2.5 mi WSW 9.2 mph - 0.00 in Snow Light Snow
7:40 PM 17.6 °F 5.0 °F 12.2 °F 79% 29.78 in 3.0 mi WSW 11.5 mph - 0.00 in Snow Light Snow
7:46 PM 17.6 °F 5.0 °F 12.2 °F 79% 29.78 in 2.5 mi SW 11.5 mph - 0.00 in Snow Light Snow
7:53 PM 17.1 °F 4.3 °F 12.9 °F 84% 29.84 in 2.0 mi SW 11.5 mph 18.4 mph 0.00 in Snow Light Snow
8:02 PM 17.6 °F 8.2 °F 14.0 °F 86% 29.79 in 1.2 mi SW 6.9 mph - 0.00 in Snow Light Snow
8:16 PM 17.6 °F 6.4 °F 14.0 °F 86% 29.80 in 1.0 mi WSW 9.2 mph - 0.00 in Snow Light Snow
8:26 PM 17.6 °F 6.4 °F 14.0 °F 86% 29.80 in 0.5 mi WSW 9.2 mph - 0.00 in Fog , Snow Snow
8:33 PM 17.6 °F 5.7 °F 14.0 °F 86% 29.80 in 0.8 mi WSW 10.4 mph - 0.00 in Snow Light Snow
8:53 PM 17.1 °F 4.3 °F 14.0 °F 88% 29.87 in 0.8 mi WSW 11.5 mph 18.4 mph 0.00 in Snow Light Snow
9:27 PM 17.6 °F 3.7 °F 14.0 °F 86% 29.82 in 1.0 mi West 13.8 mph - 0.01 in Snow Light Snow
9:38 PM 17.6 °F 4.3 °F 14.0 °F 86% 29.83 in 0.8 mi WSW 12.7 mph 20.7 mph 0.01 in Snow Light Snow
9:47 PM 17.6 °F 5.0 °F 14.0 °F 86% 29.83 in 1.5 mi WSW 11.5 mph 19.6 mph 0.01 in Snow Light Snow
9:48 PM 17.1 °F 4.3 °F 14.0 °F 88% 29.89 in 1.5 mi WSW 11.5 mph 19.6 mph 0.01 in Snow Light Snow
10:09 PM 17.6 °F 5.0 °F 14.0 °F 86% 29.83 in 0.8 mi WSW 11.5 mph - 0.00 in Snow Light Snow
10:25 PM 17.6 °F 5.7 °F 14.0 °F 86% 29.84 in 1.0 mi WSW 10.4 mph - 0.00 in Snow Light Snow
10:36 PM 17.6 °F 5.7 °F 14.0 °F 86% 29.84 in 0.5 mi WSW 10.4 mph - 0.00 in Fog , Snow Snow
10:50 PM 17.6 °F 5.0 °F 14.0 °F 86% 29.85 in 0.8 mi West 11.5 mph - 0.00 in Snow Light Snow
10:53 PM 17.1 °F 4.3 °F 14.0 °F 88% 29.91 in 0.8 mi West 11.5 mph - 0.00 in Snow Light Snow
11:03 PM 17.6 °F 5.0 °F 12.2 °F 79% 29.86 in 1.0 mi West 11.5 mph - 0.00 in Snow Light Snow
11:17 PM 17.6 °F 5.7 °F 12.2 °F 79% 29.86 in 2.0 mi WSW 10.4 mph - 0.00 in Snow Light Snow
11:51 PM 17.6 °F 5.0 °F 12.2 °F 79% 29.87 in 2.0 mi WSW 11.5 mph - 0.00 in Snow Light Snow
11:53 PM 17.1 °F 3.6 °F 12.9 °F 84% 29.93 in 2.0 mi WSW 12.7 mph - 0.00 in Snow Light Snow